Regional Weather Roundup
Issued by NWS Sterling, VA

Home | Current Version | Previous Version | Graphics & Text | Print | Product List | Glossary On
Versions: 1 2 3 4 5 6 7 8 9 10 11 12 13 14 15 16 17 18 19 20 21 22 23 24 25 26 27 28 29 30 31 32 33 34 35 36 37 38 39 40 41 42 43 44 45
000
ASUS41 KLWX 281710
RWRLWX

REGIONAL WEATHER ROUNDUP
NATIONAL WEATHER SERVICE BALTIMORE MD/WASHINGTON DC
100 PM EDT TUE JUL 28 2015

Note: "FAIR" indicates few or no clouds below 12,000 feet
with no significant weather and/or obstructions to visibility.
 TC=TEMPERATURE CELSIUS

 * =Non NWS site. Station does not report precipitation (e.g. rain,
    snow, etc.), thunder, or fog.

DCZ001-MDZ009-015-VAZ040>042-051-053>054-281800-
WASHINGTON METRO

CITY           SKY/WX    TMP DP  RH WIND       PRES   REMARKS
WASHINGTON NAT MOSUNNY   92  73  53 CALM      30.00F HX 100
DULLES         PTSUNNY   85  71  63 CALM      30.01F HX  90
ANDREWS AFB    MOSUNNY   86  73  66 SE3       30.00F HX  92
FT BELVOIR     PTSUNNY   87  73  62 VRB3      30.00F HX  95
QUANTICO       MOSUNNY   86  73  65 E6        30.00F HX  93
COLLEGE PARK*  MOSUNNY   86  72  62 CALM      30.00F HX  92
LEESBURG*      MOSUNNY   88  73  62 S5        30.02F HX  96
MANASSAS*      MOSUNNY   88  73  62 S3        30.00F HX  96
GAITHERSBURG*  MOSUNNY   86  72  62 E3        30.05F HX  92

$$

MDZ006>007-011-014-281800-
BALTIMORE METRO

CITY           SKY/WX    TMP DP  RH WIND       PRES   REMARKS
BWI AIRPORT    MOSUNNY   87  69  54 SE5       30.00F HX  91
MD SCIENCE CTR   N/A     88  70  55 MISG      30.00F HX  93
MARTIN STATE   MOSUNNY   88  75  66 S8        30.02F HX  97
ANNAPOLIS      MOSUNNY   84  72  67 SE8       30.00F
FORT MEADE*    MOSUNNY   86  72  62 S5        30.03F HX  92

$$

MDZ012-015-019>023-281800-
MARYLAND EASTERN SHORE

CITY           SKY/WX    TMP DP  RH WIND       PRES   REMARKS
OCEAN CITY     MOSUNNY   84  73  69 S9        30.01F HX  90
SALISBURY      MOSUNNY   85  73  67 CALM      30.00F HX  91
BAY BRIDGE AP*   N/A     82  73  74 NW5       30.00F
CAMBRIDGE*     MOSUNNY   86  70  58 CALM      30.00F HX  90
EASTON*        PTSUNNY   88  75  66 VRB3      30.03F HX  97

$$

MDZ017>025-281800-
SOUTHERN MARYLAND

CITY           SKY/WX    TMP DP  RH WIND       PRES   REMARKS
PATUXENT RIVER MOSUNNY   84  73  69 E6        30.00F HX  90
ST INIGOES     SUNNY     87  75  67 E7        29.99F HX  96
LEONARDTOWN*   MOSUNNY   84  72  65 CALM      30.01F

$$

MDZ003>005-281800-
NORTH CENTRAL MARYLAND

CITY           SKY/WX    TMP DP  RH WIND       PRES   REMARKS
FREDERICK*     PTSUNNY  N/A N/A N/A VRB6        N/A
HAGERSTOWN APT SUNNY     88  68  51 SE3       30.02F HX  91
WESTMINSTER*   MOSUNNY   84  75  74 CALM      30.04S HX  92

$$

MDZ501>502-281800-
WESTERN MARYLAND

CITY           SKY/WX    TMP DP  RH WIND       PRES   REMARKS
OAKLAND*       SUNNY     77 N/A N/A SE9       30.13F
CUMBERLAND*    MOSUNNY   84  70  61 SW5       30.07F

$$

VAZ025>031-281800-
SHENANDOAH VALLEY

CITY           SKY/WX    TMP DP  RH WIND       PRES   REMARKS
WINCHESTER*    PTSUNNY   86  72  62 E3        30.03F HX  92
FRONT ROYAL*   FAIR      82  73  74 CALM      30.03S
LURAY*         CLOUDY    84  73  70 N6        30.03F HX  91
NEW MARKET*    PTSUNNY   84  74  73 E3        30.01F HX  91
STAUNTON*      PTSUNNY   86  72  62 CALM      30.06F HX  91
WAYNESBORO*    PTSUNNY   80  70  72 CALM      30.06F

$$

WVZ021-048>050-054>055-281800-
EASTERN WEST VIRGINIA PANHANDLE

CITY           SKY/WX    TMP DP  RH WIND       PRES   REMARKS
MARTINSBURG    PTSUNNY   87  70  56 E5        30.02F HX  92
PETERSBURG*    PTSUNNY  N/A N/A N/A E5        30.04F

$$

VAZ036>039-050-281800-
CENTRAL FOOTHILLS

CITY           SKY/WX    TMP DP  RH WIND       PRES   REMARKS
CHARLOTTESVILL MOSUNNY   85  73  67 NE5       30.02F HX  91
CULPEPER*      CLOUDY    84  74  72 CALM      30.01F HX  91
ORANGE*        PTSUNNY   86  73  66 N3        30.03F HX  93
GORDONSVILLE*  PTSUNNY   84  75  74 NE6       30.00F HX  92
WARRENTON*     FAIR      88  76  67 SE5       30.00F HX  99

$$

VAZ055>057-281800-
NORTH AND CENTRAL PIEDMONT

CITY           SKY/WX    TMP DP  RH WIND       PRES   REMARKS
FREDERICKSBRG* MOSUNNY   89  75  65 E5        29.99F HX  99
STAFFORD*      PTSUNNY   86  72  62 NE3       30.04F HX  92

$$

NCZ024-NYZ072-PAZ021-071-VAZ022-071-281800-
OTHER REGIONAL OBSERVATIONS

CITY           SKY/WX    TMP DP  RH WIND       PRES   REMARKS
NEW YORK CITY  MOSUNNY   92  60  34 VRB5      29.99F HX  91
PHILADELPHIA   MOSUNNY   88  68  51 VRB5      29.99F HX  91
PITTSBURGH     MOSUNNY   88  64  44 E7        30.02F
ROANOKE        PTSUNNY   83  71  67 N3        30.05F
RICHMOND       PTSUNNY   85  74  69 SE6       29.99F HX  92
RALEIGH        PTSUNNY   86  70  58 SE7       30.03S HX  90

$$

ANZ530>537-281800-
MARINE OBSERVATIONS

STATION/POSITION TIME  TEMP    WIND        PRES
                       AIR SEA DIR/SP/G
                 (UTC) (F)     (DEG/KT/KT) (MB)
THOMAS PT LIGHT  NOT AVBL
BALT KEY BRIDGE  1600   79     130/  7/  8 1016.3S
COVE POINT       1600   80     100/  1/  2 1017.0S
LEWISETTA        1600   81 82   60/  5/  6 1015.8F
SOLOMONS ISLAND  1600      82                N/A

$$



USA.gov is the U.S. government's official web portal to all federal, state and local government web resources and services.